Location: Charlotte
(35.2269°N, 80.8433°W)
Time: 20:41:27
(UTC-04:00)

ISS - Visible Passes

Search period start: 25 July 2016 00:00
Search period end: 04 August 2016 00:00
Orbit: 401 x 404 km, 51.6° (Epoch: 25 July)

Date Brightness Start Highest point End Pass type
(mag) Time Alt. Az. Time Alt. Az. Time Alt. Az.
25 Jul -2.6 05:44:11 10° NW 05:47:24 58° NE 05:50:36 10° ESE visible
25 Jul -3.2 22:21:07 10° SW 22:24:21 74° NW 22:25:57 27° NE visible
26 Jul0.400:05:24NNE00:05:24NNE23:59:03WNWvisible
26 Jul -1.2 04:51:30 10° NNW 04:54:24 29° NE 04:57:18 10° E visible
26 Jul -3.2 21:28:21 10° SSW 21:31:29 47° SE 21:34:38 10° ENE visible
26 Jul -0.3 23:05:49 10° WNW 23:08:05 17° NNW 23:10:22 10° NNE visible
27 Jul -0.3 03:59:03 10° NNW 04:01:18 17° NNE 04:03:33 10° ENE visible
27 Jul -3.2 05:34:45 10° WNW 05:37:55 48° SW 05:41:03 10° SSE visible
27 Jul -1.2 22:12:06 10° W 22:14:59 29° NW 22:17:54 10° NNE visible
28 Jul 0.2 03:08:09 11° NNE 03:08:09 11° NNE 03:09:08 10° NE visible
28 Jul -3.2 04:41:47 10° NW 04:45:02 73° NE 04:48:16 10° SE visible
28 Jul -2.7 21:18:46 10° WSW 21:21:59 59° NW 21:25:12 10° NE visible
29 Jul -1.3 05:29:47 13° SSW 05:29:47 13° SSW 05:30:32 10° S visible
29 Jul -0.1 22:03:45 10° WNW 22:05:46 15° NNW 22:07:46 10° N visible
30 Jul -0.8 21:09:52 10° W 21:12:37 25° NW 21:15:23 10° NNE visible
01 Aug -0.2 21:01:41 10° WNW 21:03:25 13° NNW 21:05:08 10° N visible
